QPF
0.03 0.02 0.02 0.02 0.02 0.02 0.02 0.03 0.04 0.04 0.03 0.02 0.03 0.04 0.05 0.03 0.03 0.03 0.03 0.04 0.04 0.03 0.03 0.02 0.03 0.03 0.03 0.03 0.04 0.06 0.05 0.05 0.06 0.07 0.07 0.06 0.05 0.05 0.05 0.05 0.10 0.12 0.09
0.03 0.03 0.04 0.04 0.03 0.03 0.03 0.03 0.04 0.05 0.04 0.03 0.04 0.04 0.03 0.03 0.04 0.03 0.03 0.04 0.04 0.03 0.02 0.03 0.03 0.03 0.04 0.04 0.05 0.08 0.06 0.05 0.07 0.08 0.09 0.08 0.07 0.05 0.03 0.04 0.05 0.06 0.07
0.04 0.04 0.05 0.06 0.06 0.05 0.04 0.05 0.08 0.07 0.06 0.05 0.07 0.09 0.06 0.07 0.07 0.06 0.04 0.03 0.03 0.02 0.02 0.02 0.02 0.03 0.04 0.04 0.04 0.06 0.07 0.08 0.09 0.09 0.09 0.08 0.07 0.06 0.05 0.04 0.04 0.04 0.05
0.03 0.05 0.07 0.07 0.07 0.05 0.04 0.05 0.07 0.09 0.08 0.07 0.07 0.10 0.09 0.08 0.08 0.06 0.04 0.03 0.03 0.03 0.03 0.03 0.03 0.03 0.03 0.03 0.04 0.04 0.06 0.07 0.07 0.06 0.06 0.07 0.08 0.08 0.06 0.05 0.05 0.05 0.06
0.02 0.05 0.06 0.07 0.06 0.05 0.04 0.06 0.10 0.10 0.09 0.10 0.07 0.07 0.06 0.05 0.08 0.09 0.07 0.05 0.04 0.04 0.04 0.05 0.04 0.05 0.04 0.05 0.04 0.05 0.06 0.06 0.05 0.05 0.05 0.06 0.05 0.05 0.06 0.05 0.06 0.05 0.04
0.02 0.03 0.03 0.03 0.03 0.04 0.04 0.06 0.10 0.12 0.11 0.08 0.07 0.06 0.05 0.04 0.05 0.08 0.09 0.09 0.08 0.06 0.05 0.05 0.05 0.05 0.04 0.05 0.05 0.04 0.04 0.04 0.04 0.05 0.05 0.05 0.04 0.04 0.05 0.05 0.05 0.06 0.05
0.01 0.02 0.02 0.03 0.03 0.03 0.03 0.03 0.06 0.10 0.11 0.10 0.08 0.06 0.05 0.04 0.04 0.04 0.05 0.06 0.06 0.05 0.04 0.04 0.05 0.05 0.05 0.04 0.04 0.05 0.05 0.05 0.04 0.04 0.04 0.04 0.04 0.04 0.04 0.05 0.04 0.04 0.06
0.01 0.01 0.01 0.02 0.03 0.04 0.03 0.03 0.04 0.06 0.07 0.07 0.07 0.07 0.05 0.03 0.02 0.03 0.04 0.05 0.04 0.03 0.03 0.03 0.04 0.05 0.05 0.04 0.05 0.05 0.05 0.05 0.04 0.03 0.04 0.03 0.03 0.03 0.03 0.03 0.04 0.04 0.04
0.01 0.01 0.02 0.03 0.03 0.03 0.03 0.02 0.02 0.03 0.03 0.04 0.04 0.03 0.03 0.02 0.02 0.02 0.02 0.03 0.03 0.03 0.03 0.03 0.03 0.04 0.05 0.05 0.06 0.06 0.07 0.07 0.06 0.05 0.05 0.04 0.04 0.04 0.04 0.03 0.04 0.05 0.04
0.01 0.01 0.03 0.02 0.03 0.02 0.02 0.01 0.02 0.02 0.02 0.02 0.02 0.02 0.02 0.01 0.02 0.02 0.02 0.02 0.02 0.03 0.03 0.03 0.04 0.05 0.05 0.05 0.05 0.06 0.07 0.07 0.06 0.07 0.07 0.06 0.06 0.06 0.05 0.03 0.03 0.04 0.05
0.01 0.01 0.02 0.02 0.02 0.02 0.02 0.02 0.02 0.02 0.01 0.01 0.01 0.01 0.01 0.01 0.01 0.01 0.01 0.02 0.02 0.02 0.02 0.03 0.04 0.05 0.05 0.05 0.04 0.04 0.05 0.05 0.05 0.05 0.05 0.05 0.06 0.06 0.05 0.04 0.04 0.04 0.05
0.01 0.01 0.01 0.02 0.02 0.03 0.02 0.02 0.01 0.01 0.01 0.01 0.01 0.01 0.01 0.01 0.01 0.01 0.01 0.01 0.02 0.02 0.03 0.04 0.05 0.06 0.07 0.06 0.05 0.04 0.04 0.04 0.04 0.04 0.04 0.04 0.03 0.03 0.04 0.03 0.03 0.03 0.03
0.01 0.02 0.01 0.02 0.03 0.04 0.03 0.01 0.01 0.01 0.01 0.01 0.01 0.01 0.01 0.01 0.01 0.01 0.01 0.01 0.01 0.02 0.03 0.04 0.04 0.05 0.06 0.07 0.05 0.04 0.03 0.03 0.03 0.03 0.04 0.04 0.04 0.03 0.03 0.03 0.03 0.02 0.02
0.02 0.03 0.02 0.02 0.03 0.03 0.02 0.01 0.01 0.01 0.01 0.01 0.01 0.01 0.01 0.01 0.01 0.01 0.01 0.01 0.01 0.02 0.03 0.03 0.03 0.04 0.04 0.05 0.06 0.04 0.03 0.03 0.03 0.03 0.03 0.03 0.04 0.04 0.04 0.05 0.05 0.03 0.03
0.02 0.04 0.02 0.02 0.02 0.02 0.01 0.01 0.01 0.01 0.01 0.01 0.01 0.01 0.01 0.01 0.01 0.01 0.01 0.01 0.01 0.01 0.02 0.03 0.03 0.02 0.03 0.04 0.04 0.03 0.03 0.03 0.02 0.02 0.03 0.03 0.05 0.04 0.03 0.03 0.04 0.05 0.05
0.02 0.02 0.02 0.02 0.02 0.01 0.01 0.02 0.01 0.01 0.01 0.01 0.01 0.01 0.01 0.01 0.02 0.02 0.01 0.01 0.02 0.01 0.01 0.01 0.02 0.02 0.02 0.02 0.02 0.02 0.03 0.03 0.02 0.02 0.02 0.02 0.03 0.03 0.02 0.02 0.02 0.03 0.03
0.01 0.02 0.02 0.02 0.02 0.02 0.02 0.02 0.01 0.01 0.01 0.01 0.01 0.02 0.02 0.02 0.02 0.02 0.01 0.01 0.01 0.01 0.01 0.01 0.02 0.02 0.02 0.01 0.01 0.02 0.03 0.03 0.03 0.02 0.01 0.01 0.01 0.01 0.01 0.01 0.01 0.02 0.02
0.01 0.02 0.02 0.02 0.02 0.02 0.02 0.02 0.01 0.01 0.01 0.01 0.02 0.02 0.02 0.02 0.02 0.01 0.01 0.01 0.01 0.01 0.01 0.01 0.02 0.02 0.02 0.01 0.02 0.01 0.02 0.04 0.04 0.03 0.02 0.02 0.01 0.01 0.01 0.01 0.02 0.02 0.02
0.02 0.02 0.03 0.03 0.03 0.03 0.04 0.03 0.03 0.02 0.02 0.01 0.02 0.01 0.01 0.01 0.01 0.01 0.01 0.01 0.02 0.02 0.02 0.01 0.02 0.03 0.02 0.02 0.03 0.02 0.03 0.05 0.05 0.04 0.03 0.02 0.02 0.01 0.01 0.01 0.02 0.02 0.03
0.02 0.02 0.03 0.03 0.03 0.03 0.04 0.04 0.04 0.03 0.03 0.02 0.02 0.01 0.01 0.01 0.01 0.01 0.01 0.02 0.02 0.02 0.03 0.04 0.06 0.06 0.05 0.06 0.06 0.05 0.04 0.05 0.05 0.04 0.03 0.02 0.02 0.01 0.02 0.02 0.02 0.01 0.02
0.01 0.01 0.02 0.02 0.02 0.01 0.02 0.03 0.03 0.03 0.03 0.03 0.02 0.02 0.02 0.02 0.02 0.01 0.01 0.02 0.02 0.02 0.03 0.04 0.06 0.06 0.06 0.06 0.05 0.04 0.03 0.04 0.03 0.02 0.02 0.01 0.01 0.01 0.01 0.01 0.02 0.01 0.01
0.01 0.01 0.01 0.01 0.01 0.01 0.01 0.02 0.02 0.02 0.01 0.01 0.01 0.02 0.02 0.01 0.01 0.01 0.02 0.01 0.02 0.02 0.03 0.02 0.03 0.03 0.03 0.04 0.03 0.02 0.02 0.02 0.02 0.02 0.01 0.01 0.01 0.01 0.01 0.01 0.01 0.01 0.01
0.00 0.01 0.01 0.00 0.00 0.00 0.01 0.01 0.01 0.02 0.01 0.01 0.01 0.01 0.01 0.01 0.01 0.01 0.02 0.03 0.03 0.03 0.02 0.02 0.02 0.02 0.03 0.03 0.02 0.02 0.02 0.01 0.02 0.02 0.02 0.02 0.01 0.00 0.00 0.00 0.00 0.01 0.01
0.01 0.01 0.01 0.01 0.01 0.00 0.00 0.01 0.00 0.01 0.01 0.01 0.02 0.02 0.03 0.02 0.02 0.02 0.02 0.04 0.03 0.03 0.03 0.03 0.02 0.02 0.02 0.03 0.02 0.02 0.02 0.02 0.02 0.02 0.01 0.01 0.00 0.00 0.00 0.01 0.01 0.01 0.01
0.01 0.01 0.01 0.03 0.02 0.01 0.01 0.01 0.01 0.01 0.01 0.01 0.02 0.03 0.03 0.03 0.02 0.01 0.01 0.02 0.03 0.03 0.03 0.02 0.02 0.02 0.02 0.02 0.02 0.02 0.02 0.02 0.02 0.02 0.01 0.01 0.01 0.01 0.01 0.01 0.01 0.02 0.02
0.01 0.01 0.01 0.02 0.02 0.01 0.01 0.01 0.01 0.01 0.01 0.01 0.01 0.01 0.01 0.01 0.02 0.01 0.01 0.01 0.01 0.01 0.01 0.00 0.00 0.01 0.01 0.01 0.01 0.01 0.01 0.01 0.01 0.01 0.01 0.01 0.01 0.01 0.01 0.01 0.01 0.02 0.03
MSLP
1017.29 1017.34 1017.40 1017.45 1017.49 1017.50 1017.50 1017.47 1017.43 1017.38 1017.31 1017.23 1017.15 1017.05 1016.95 1016.85 1016.76 1016.67 1016.57 1016.48 1016.37 1016.24 1016.09 1015.90 1015.68 1015.43 1015.15 1014.86 1014.54 1014.23 1013.90 1013.56 1013.22 1012.87 1012.52 1012.18 1011.86 1011.58 1011.33 1011.12 1010.97 1010.85 1010.77
1017.11 1017.14 1017.17 1017.20 1017.22 1017.24 1017.25 1017.26 1017.27 1017.28 1017.28 1017.27 1017.23 1017.17 1017.07 1016.95 1016.82 1016.67 1016.52 1016.38 1016.25 1016.12 1016.00 1015.85 1015.69 1015.51 1015.28 1015.03 1014.75 1014.44 1014.11 1013.77 1013.43 1013.09 1012.76 1012.44 1012.14 1011.86 1011.62 1011.39 1011.20 1011.02 1010.87
1016.85 1016.86 1016.87 1016.87 1016.88 1016.89 1016.91 1016.95 1017.01 1017.08 1017.15 1017.21 1017.24 1017.22 1017.15 1017.02 1016.86 1016.67 1016.48 1016.30 1016.14 1016.02 1015.91 1015.82 1015.73 1015.61 1015.46 1015.26 1015.02 1014.74 1014.43 1014.09 1013.75 1013.41 1013.09 1012.78 1012.49 1012.22 1011.97 1011.73 1011.49 1011.26 1011.05
1016.52 1016.52 1016.51 1016.50 1016.49 1016.50 1016.52 1016.58 1016.68 1016.81 1016.95 1017.08 1017.17 1017.20 1017.17 1017.06 1016.89 1016.68 1016.46 1016.25 1016.08 1015.95 1015.87 1015.82 1015.77 1015.72 1015.64 1015.51 1015.32 1015.08 1014.80 1014.48 1014.14 1013.81 1013.49 1013.18 1012.90 1012.62 1012.36 1012.09 1011.82 1011.55 1011.28
1016.17 1016.16 1016.15 1016.14 1016.12 1016.12 1016.14 1016.21 1016.33 1016.50 1016.68 1016.87 1017.03 1017.12 1017.14 1017.07 1016.92 1016.71 1016.48 1016.25 1016.06 1015.92 1015.84 1015.81 1015.81 1015.81 1015.78 1015.71 1015.58 1015.39 1015.14 1014.85 1014.53 1014.21 1013.89 1013.59 1013.30 1013.02 1012.74 1012.45 1012.16 1011.86 1011.55
1015.85 1015.86 1015.86 1015.85 1015.83 1015.82 1015.83 1015.89 1016.00 1016.17 1016.39 1016.61 1016.82 1016.97 1017.04 1017.02 1016.91 1016.72 1016.49 1016.26 1016.05 1015.90 1015.81 1015.78 1015.78 1015.81 1015.82 1015.79 1015.71 1015.57 1015.36 1015.11 1014.83 1014.53 1014.22 1013.93 1013.64 1013.35 1013.06 1012.77 1012.46 1012.14 1011.83
1015.63 1015.66 1015.69 1015.69 1015.67 1015.64 1015.62 1015.65 1015.73 1015.88 1016.09 1016.32 1016.55 1016.75 1016.87 1016.90 1016.83 1016.68 1016.47 1016.24 1016.02 1015.84 1015.72 1015.66 1015.65 1015.67 1015.70 1015.70 1015.66 1015.57 1015.42 1015.21 1014.97 1014.71 1014.43 1014.15 1013.87 1013.59 1013.30 1013.01 1012.70 1012.39 1012.08
1015.53 1015.60 1015.65 1015.67 1015.65 1015.60 1015.54 1015.52 1015.54 1015.63 1015.79 1016.00 1016.23 1016.44 1016.60 1016.67 1016.65 1016.54 1016.36 1016.14 1015.91 1015.70 1015.54 1015.44 1015.40 1015.40 1015.41 1015.43 1015.42 1015.37 1015.28 1015.13 1014.95 1014.74 1014.50 1014.25 1013.99 1013.72 1013.45 1013.16 1012.87 1012.57 1012.28
1015.54 1015.65 1015.74 1015.77 1015.74 1015.67 1015.57 1015.47 1015.42 1015.43 1015.52 1015.67 1015.87 1016.07 1016.24 1016.35 1016.37 1016.30 1016.15 1015.95 1015.71 1015.48 1015.29 1015.14 1015.05 1015.01 1015.01 1015.03 1015.05 1015.04 1015.00 1014.92 1014.80 1014.64 1014.46 1014.25 1014.02 1013.78 1013.52 1013.26 1012.98 1012.71 1012.44
1015.63 1015.77 1015.88 1015.93 1015.90 1015.80 1015.64 1015.48 1015.34 1015.26 1015.26 1015.34 1015.48 1015.65 1015.81 1015.94 1015.99 1015.97 1015.85 1015.67 1015.45 1015.21 1014.99 1014.80 1014.67 1014.60 1014.58 1014.59 1014.62 1014.65 1014.67 1014.65 1014.60 1014.50 1014.38 1014.21 1014.02 1013.80 1013.57 1013.32 1013.07 1012.81 1012.57
1015.72 1015.89 1016.02 1016.07 1016.04 1015.91 1015.72 1015.49 1015.27 1015.10 1015.01 1015.00 1015.07 1015.19 1015.34 1015.47 1015.55 1015.56 1015.49 1015.34 1015.14 1014.92 1014.69 1014.49 1014.34 1014.25 1014.21 1014.22 1014.27 1014.33 1014.39 1014.42 1014.43 1014.39 1014.31 1014.19 1014.03 1013.84 1013.63 1013.40 1013.16 1012.93 1012.70
1015.76 1015.93 1016.07 1016.12 1016.08 1015.94 1015.72 1015.45 1015.18 1014.94 1014.77 1014.68 1014.68 1014.75 1014.86 1014.99 1015.08 1015.12 1015.10 1015.00 1014.84 1014.65 1014.45 1014.26 1014.11 1014.01 1013.97 1013.99 1014.05 1014.13 1014.22 1014.30 1014.35 1014.36 1014.32 1014.23 1014.10 1013.93 1013.74 1013.52 1013.29 1013.07 1012.85
1015.70 1015.87 1016.00 1016.05 1016.01 1015.87 1015.64 1015.35 1015.05 1014.76 1014.53 1014.39 1014.32 1014.34 1014.42 1014.52 1014.62 1014.69 1014.71 1014.66 1014.56 1014.43 1014.27 1014.11 1013.99 1013.91 1013.88 1013.91 1013.98 1014.08 1014.19 1014.29 1014.37 1014.41 1014.40 1014.34 1014.23 1014.08 1013.89 1013.69 1013.47 1013.25 1013.04
1015.56 1015.70 1015.81 1015.85 1015.81 1015.68 1015.46 1015.18 1014.88 1014.58 1014.32 1014.13 1014.02 1013.98 1014.02 1014.10 1014.19 1014.28 1014.33 1014.34 1014.30 1014.23 1014.13 1014.03 1013.95 1013.90 1013.89 1013.93 1014.01 1014.12 1014.24 1014.36 1014.45 1014.51 1014.51 1014.47 1014.38 1014.24 1014.07 1013.88 1013.68 1013.47 1013.27
1015.36 1015.47 1015.55 1015.58 1015.54 1015.42 1015.23 1014.97 1014.68 1014.39 1014.12 1013.91 1013.76 1013.68 1013.67 1013.72 1013.80 1013.88 1013.95 1014.00 1014.02 1014.01 1013.97 1013.93 1013.90 1013.89 1013.91 1013.97 1014.06 1014.17 1014.30 1014.41 1014.51 1014.57 1014.59 1014.56 1014.49 1014.38 1014.23 1014.06 1013.88 1013.70 1013.51
1015.15 1015.23 1015.28 1015.29 1015.25 1015.15 1014.98 1014.75 1014.49 1014.22 1013.95 1013.72 1013.54 1013.43 1013.37 1013.37 1013.42 1013.48 1013.56 1013.63 1013.68 1013.71 1013.74 1013.75 1013.76 1013.79 1013.84 1013.92 1014.01 1014.13 1014.25 1014.37 1014.47 1014.54 1014.58 1014.57 1014.52 1014.44 1014.33 1014.20 1014.05 1013.90 1013.74
1015.00 1015.04 1015.06 1015.05 1015.00 1014.90 1014.75 1014.56 1014.32 1014.07 1013.81 1013.57 1013.36 1013.20 1013.10 1013.04 1013.04 1013.07 1013.12 1013.18 1013.25 1013.31 1013.37 1013.42 1013.47 1013.53 1013.60 1013.70 1013.80 1013.92 1014.05 1014.17 1014.28 1014.37 1014.43 1014.45 1014.44 1014.40 1014.34 1014.25 1014.15 1014.04 1013.92
1014.92 1014.94 1014.93 1014.90 1014.83 1014.73 1014.59 1014.40 1014.18 1013.94 1013.69 1013.43 1013.20 1013.00 1012.83 1012.72 1012.65 1012.63 1012.64 1012.67 1012.72 1012.78 1012.85 1012.92 1012.99 1013.08 1013.17 1013.27 1013.40 1013.53 1013.66 1013.80 1013.93 1014.05 1014.14 1014.21 1014.25 1014.26 1014.24 1014.21 1014.16 1014.09 1014.01
1014.92 1014.93 1014.90 1014.84 1014.75 1014.63 1014.48 1014.29 1014.08 1013.84 1013.58 1013.31 1013.05 1012.80 1012.58 1012.41 1012.27 1012.18 1012.13 1012.11 1012.13 1012.17 1012.22 1012.29 1012.37 1012.47 1012.57 1012.70 1012.83 1012.99 1013.15 1013.31 1013.47 1013.63 1013.76 1013.87 1013.96 1014.02 1014.06 1014.07 1014.06 1014.03 1013.99
1014.96 1014.97 1014.92 1014.84 1014.72 1014.58 1014.41 1014.21 1013.99 1013.75 1013.48 1013.20 1012.91 1012.63 1012.36 1012.12 1011.92 1011.76 1011.64 1011.57 1011.53 1011.53 1011.55 1011.61 1011.68 1011.78 1011.90 1012.04 1012.20 1012.38 1012.57 1012.77 1012.97 1013.16 1013.34 1013.49 1013.62 1013.73 1013.80 1013.84 1013.86 1013.85 1013.83
1014.98 1015.00 1014.95 1014.84 1014.71 1014.54 1014.36 1014.15 1013.92 1013.67 1013.40 1013.10 1012.80 1012.49 1012.19 1011.90 1011.64 1011.42 1011.23 1011.09 1010.99 1010.94 1010.92 1010.95 1011.01 1011.11 1011.23 1011.39 1011.57 1011.78 1012.00 1012.24 1012.47 1012.70 1012.91 1013.10 1013.25 1013.38 1013.46 1013.52 1013.54 1013.54 1013.52
1014.93 1014.96 1014.92 1014.81 1014.67 1014.49 1014.30 1014.08 1013.85 1013.60 1013.33 1013.04 1012.73 1012.41 1012.08 1011.76 1011.45 1011.17 1010.93 1010.72 1010.56 1010.45 1010.39 1010.38 1010.42 1010.51 1010.64 1010.81 1011.01 1011.25 1011.50 1011.76 1012.02 1012.27 1012.49 1012.69 1012.85 1012.96 1013.04 1013.09 1013.10 1013.09 1013.06
1014.77 1014.83 1014.80 1014.71 1014.57 1014.40 1014.21 1014.00 1013.78 1013.55 1013.29 1013.01 1012.71 1012.39 1012.05 1011.71 1011.36 1011.04 1010.74 1010.47 1010.25 1010.09 1009.98 1009.93 1009.95 1010.02 1010.15 1010.32 1010.54 1010.78 1011.05 1011.32 1011.58 1011.83 1012.04 1012.23 1012.36 1012.46 1012.51 1012.53 1012.52 1012.49 1012.45
1014.48 1014.57 1014.57 1014.51 1014.39 1014.25 1014.08 1013.90 1013.70 1013.49 1013.26 1013.01 1012.73 1012.41 1012.08 1011.72 1011.35 1010.98 1010.63 1010.32 1010.04 1009.82 1009.67 1009.58 1009.56 1009.61 1009.73 1009.90 1010.11 1010.35 1010.61 1010.86 1011.11 1011.33 1011.51 1011.66 1011.76 1011.81 1011.83 1011.82 1011.78 1011.74 1011.69
1014.07 1014.20 1014.24 1014.22 1014.14 1014.03 1013.90 1013.76 1013.60 1013.42 1013.23 1013.00 1012.74 1012.44 1012.11 1011.74 1011.35 1010.95 1010.57 1010.20 1009.88 1009.61 1009.41 1009.28 1009.23 1009.25 1009.34 1009.48 1009.67 1009.89 1010.12 1010.34 1010.54 1010.71 1010.85 1010.94 1010.98 1011.00 1010.98 1010.94 1010.90 1010.86 1010.83
1013.55 1013.72 1013.81 1013.83 1013.81 1013.75 1013.66 1013.56 1013.44 1013.30 1013.14 1012.94 1012.69 1012.41 1012.08 1011.71 1011.31 1010.89 1010.47 1010.07 1009.70 1009.39 1009.15 1008.98 1008.89 1008.87 1008.93 1009.03 1009.18 1009.35 1009.53 1009.69 1009.83 1009.94 1010.01 1010.03 1010.03 1010.00 1009.97 1009.92 1009.89 1009.88 1009.89
Thickness
5734 5731 5728 5724 5720 5716 5713 5710 5708 5706 5704 5702 5700 5698 5696 5695 5693 5692 5689 5686 5684 5683 5682 5683 5683 5683 5684 5683 5683 5682 5682 5681 5681 5680 5681 5683 5686 5685 5684 5684 5684 5684 5684
5728 5725 5723 5720 5715 5711 5709 5706 5703 5702 5700 5698 5695 5693 5692 5691 5690 5689 5685 5683 5682 5680 5681 5679 5680 5680 5679 5679 5679 5677 5677 5678 5677 5675 5674 5675 5677 5677 5681 5679 5678 5678 5678
5723 5720 5717 5715 5712 5708 5705 5703 5699 5697 5695 5694 5693 5691 5689 5688 5688 5686 5684 5682 5680 5678 5676 5676 5676 5676 5677 5677 5675 5674 5672 5672 5673 5672 5669 5668 5668 5669 5673 5672 5672 5671 5671
5721 5717 5714 5710 5708 5705 5703 5699 5696 5693 5692 5690 5689 5686 5684 5683 5683 5682 5682 5679 5678 5676 5674 5673 5673 5673 5674 5673 5672 5672 5670 5668 5667 5667 5665 5664 5664 5660 5661 5664 5666 5665 5665
5719 5715 5712 5708 5706 5703 5700 5696 5692 5690 5688 5686 5684 5682 5681 5681 5680 5679 5678 5676 5676 5674 5672 5671 5670 5669 5670 5669 5667 5667 5666 5665 5663 5662 5661 5660 5658 5657 5654 5655 5657 5658 5660
5717 5714 5711 5706 5702 5700 5697 5693 5689 5687 5685 5683 5681 5679 5677 5676 5674 5673 5673 5673 5674 5672 5670 5669 5667 5666 5666 5664 5663 5662 5661 5659 5658 5657 5657 5656 5654 5652 5651 5649 5649 5650 5653
5714 5711 5706 5702 5698 5695 5693 5690 5686 5683 5682 5680 5678 5677 5675 5673 5671 5670 5670 5670 5670 5669 5667 5666 5664 5663 5662 5661 5659 5658 5656 5655 5653 5652 5653 5653 5651 5650 5647 5645 5644 5644 5647
5711 5706 5703 5699 5696 5692 5690 5687 5683 5680 5679 5677 5676 5674 5673 5673 5672 5669 5668 5668 5668 5667 5664 5662 5660 5660 5659 5658 5656 5656 5654 5652 5650 5649 5648 5647 5647 5646 5643 5641 5639 5638 5640
5706 5702 5699 5696 5693 5690 5687 5684 5681 5679 5677 5675 5673 5672 5671 5669 5669 5667 5665 5666 5664 5664 5661 5659 5657 5656 5655 5654 5652 5651 5649 5648 5647 5646 5644 5643 5643 5642 5640 5638 5636 5632 5631
5702 5698 5695 5692 5690 5687 5684 5682 5679 5676 5675 5674 5672 5672 5670 5668 5666 5665 5663 5662 5661 5659 5658 5657 5655 5654 5653 5651 5648 5647 5646 5643 5642 5640 5637 5636 5637 5636 5635 5634 5632 5630 5627
5698 5695 5693 5690 5687 5684 5681 5678 5676 5674 5673 5672 5670 5668 5667 5666 5665 5663 5661 5660 5658 5656 5655 5653 5651 5650 5648 5647 5645 5644 5641 5639 5637 5636 5634 5632 5630 5630 5629 5629 5627 5626 5624
5696 5693 5690 5687 5683 5681 5679 5677 5675 5673 5672 5670 5668 5666 5665 5663 5662 5661 5658 5657 5655 5653 5652 5650 5648 5647 5645 5643 5641 5638 5637 5635 5634 5632 5630 5628 5627 5625 5624 5623 5622 5620 5618
5693 5691 5687 5684 5681 5678 5677 5675 5674 5672 5671 5670 5667 5665 5663 5661 5659 5657 5656 5654 5652 5651 5649 5648 5645 5643 5642 5639 5637 5635 5633 5632 5631 5629 5627 5624 5623 5620 5620 5618 5617 5617 5615
5690 5687 5683 5680 5677 5675 5674 5673 5672 5670 5669 5667 5665 5662 5660 5659 5657 5655 5653 5651 5650 5648 5647 5646 5643 5641 5639 5637 5635 5633 5631 5629 5628 5626 5624 5622 5620 5617 5616 5614 5612 5611 5609
5687 5683 5679 5676 5673 5672 5671 5670 5669 5668 5666 5664 5662 5660 5658 5657 5654 5652 5650 5649 5647 5647 5646 5643 5641 5639 5637 5635 5633 5631 5629 5627 5625 5623 5621 5619 5616 5612 5610 5610 5608 5606 5604
5683 5680 5677 5674 5671 5669 5668 5667 5666 5665 5663 5661 5659 5658 5656 5654 5651 5649 5648 5647 5646 5645 5643 5641 5639 5637 5635 5629 5626 5625 5625 5624 5622 5620 5618 5616 5613 5609 5605 5602 5599 5597 5596
5680 5677 5674 5671 5669 5667 5666 5665 5664 5663 5661 5659 5657 5656 5654 5651 5649 5648 5646 5645 5643 5642 5640 5639 5636 5634 5630 5625 5622 5619 5620 5621 5619 5617 5615 5614 5612 5606 5604 5600 5596 5594 5590
5678 5675 5673 5670 5668 5666 5665 5663 5663 5660 5658 5656 5655 5654 5652 5649 5647 5646 5644 5642 5641 5639 5637 5636 5634 5632 5627 5622 5619 5617 5617 5618 5616 5614 5612 5609 5606 5603 5598 5597 5595 5593 5590
5676 5673 5671 5669 5666 5664 5662 5660 5659 5658 5656 5654 5653 5652 5650 5648 5645 5644 5642 5640 5638 5636 5635 5634 5632 5630 5626 5620 5616 5613 5616 5615 5614 5612 5609 5606 5602 5595 5591 5591 5589 5587 5585
5674 5671 5669 5667 5663 5660 5659 5657 5655 5654 5653 5652 5651 5650 5648 5646 5644 5642 5640 5639 5636 5635 5634 5632 5631 5628 5625 5619 5614 5610 5615 5613 5612 5610 5606 5600 5595 5589 5585 5586 5584 5581 5579
5670 5668 5666 5663 5660 5657 5655 5653 5652 5651 5651 5650 5649 5648 5646 5643 5641 5639 5638 5637 5635 5633 5631 5630 5629 5627 5623 5618 5612 5609 5611 5611 5609 5608 5604 5599 5590 5585 5581 5578 5577 5574 5570
5666 5664 5661 5659 5657 5654 5652 5649 5648 5649 5649 5647 5646 5644 5643 5641 5641 5637 5635 5634 5633 5631 5629 5628 5626 5626 5622 5617 5612 5607 5604 5603 5604 5602 5600 5595 5586 5582 5578 5575 5571 5568 5564
5662 5659 5657 5654 5653 5651 5649 5646 5645 5645 5644 5642 5641 5640 5639 5637 5636 5635 5634 5632 5631 5631 5631 5629 5627 5625 5623 5617 5610 5605 5602 5599 5598 5598 5593 5588 5583 5579 5577 5572 5568 5564 5564
5657 5655 5653 5650 5648 5647 5646 5644 5643 5641 5639 5637 5636 5636 5635 5634 5633 5632 5633 5632 5631 5630 5629 5627 5625 5623 5621 5616 5612 5608 5603 5597 5595 5594 5590 5585 5582 5578 5574 5571 5568 5565 5563
5653 5651 5648 5646 5644 5643 5641 5640 5639 5637 5634 5633 5632 5632 5633 5633 5630 5630 5629 5629 5627 5625 5621 5622 5620 5618 5615 5609 5602 5602 5602 5599 5596 5591 5590 5589 5587 5583 5579 5575 5570 5565 5561
5648 5646 5644 5642 5641 5640 5638 5637 5635 5633 5630 5629 5629 5630 5631 5630 5629 5629 5628 5623 5621 5617 5613 5610 5608 5610 5605 5600 5597 5594 5592 5590 5587 5587 5590 5588 5586 5583 5578 5573 5569 5564 5559